Temp
80 80 79 79 79 78 78 78 78 77 78 78 79 78 77 74 69 68 70 70 79 79 78 78 77 77 77 77 77 78 77 78 77
80 79 79 79 79 79 78 78 78 77 78 78 79 78 75 69 68 68 68 71 79 78 78 78 77 77 77 77 78 78 77 77 77
80 79 79 79 79 78 78 78 77 77 77 78 78 77 75 72 68 68 68 76 78 78 77 77 77 77 76 76 76 77 77 76 76
79 79 79 79 79 78 78 78 77 77 77 77 77 76 73 67 68 72 69 77 78 77 77 76 77 77 76 76 76 76 76 76 76
78 78 78 78 78 78 78 78 77 77 77 77 77 75 73 67 68 68 71 77 77 77 76 76 76 76 77 76 76 76 75 75 75
75 76 76 78 78 78 77 77 76 76 76 76 76 74 68 66 67 68 75 77 77 77 76 76 76 76 76 76 76 75 76 74 75
74 74 76 77 77 77 77 77 76 74 69 68 72 70 71 66 66 68 75 76 76 76 75 75 75 76 75 75 74 74 75 74 73
70 70 72 71 75 70 73 72 70 68 68 68 70 69 67 67 67 71 75 76 76 76 75 75 75 75 74 74 74 74 75 73 73
66 69 69 69 69 68 68 67 67 67 68 66 67 68 71 69 67 68 74 75 76 76 75 75 75 74 73 74 74 74 74 74 73
67 68 69 68 67 67 66 66 66 65 66 66 67 67 70 68 67 65 73 74 75 76 76 75 75 74 74 73 73 73 73 73 72
68 68 68 68 67 67 66 66 65 64 64 67 68 69 70 70 67 66 68 73 74 75 75 75 75 74 73 73 73 72 73 72 72
71 69 68 68 68 66 66 65 64 63 65 65 68 69 68 68 66 68 66 67 71 73 74 75 75 74 74 73 73 73 72 72 72
69 67 67 67 66 66 65 64 62 62 63 65 66 67 68 66 67 68 67 64 66 69 72 73 74 74 74 73 73 72 72 72 72
68 66 67 67 66 65 65 64 63 62 63 65 64 66 67 67 67 64 64 64 63 63 69 71 72 74 74 73 73 72 71 72 71
67 67 68 66 65 63 64 64 63 63 63 66 63 61 64 62 64 63 64 64 63 63 65 63 66 72 73 73 73 73 72 71 71
66 65 66 65 65 64 65 62 62 61 62 60 60 60 58 59 61 61 63 64 64 62 62 63 62 64 71 73 73 73 73 72 71
66 65 64 65 63 62 63 62 60 60 61 60 59 55 56 58 60 62 63 63 64 61 64 63 62 62 61 64 70 71 72 72 71
63 66 65 65 64 63 63 63 61 59 58 58 57 51 52 57 59 61 60 60 61 61 61 60 62 62 62 63 65 68 70 71 71
63 63 63 63 65 64 63 63 60 60 57 58 61 57 56 54 53 58 59 58 58 58 59 60 60 61 61 63 64 66 66 67 70
63 63 63 64 65 64 62 61 61 60 58 57 56 55 54 54 52 53 54 55 55 55 55 56 57 58 59 60 62 64 64 65 66
MSLP
1012.72 1012.75 1012.82 1012.90 1012.88 1012.99 1013.12 1013.19 1013.17 1013.19 1013.04 1012.93 1012.79 1012.87 1012.91 1013.00 1012.99 1012.89 1012.54 1012.09 1011.62 1011.46 1011.18 1010.99 1010.78 1010.48 1010.17 1009.74 1009.15 1008.62 1008.29 1007.84 1006.94
1012.93 1012.88 1012.89 1013.01 1012.97 1013.00 1013.21 1013.41 1013.34 1013.27 1013.20 1013.13 1012.87 1013.14 1013.24 1013.22 1013.08 1012.84 1012.69 1012.33 1011.89 1011.67 1011.43 1011.35 1011.00 1010.71 1010.41 1009.98 1009.39 1009.02 1008.49 1008.31 1007.26
1012.53 1012.82 1013.14 1013.16 1013.14 1013.17 1013.30 1013.20 1013.31 1013.28 1013.29 1013.24 1013.19 1013.23 1013.35 1013.25 1013.16 1013.01 1012.88 1012.47 1012.16 1012.03 1011.85 1011.58 1011.23 1011.04 1010.69 1010.32 1010.02 1009.33 1008.99 1008.49 1007.80
1012.37 1012.50 1012.77 1013.03 1013.24 1013.36 1013.32 1013.26 1013.23 1013.16 1013.23 1013.33 1013.22 1013.34 1013.54 1013.54 1013.21 1013.03 1012.92 1012.63 1012.55 1012.31 1012.27 1011.82 1011.55 1011.22 1011.12 1010.74 1010.41 1009.96 1009.51 1008.91 1008.22
1012.23 1012.56 1012.74 1012.85 1013.12 1013.41 1013.58 1013.59 1013.45 1013.31 1013.18 1013.24 1013.33 1013.60 1013.58 1013.61 1013.45 1013.29 1013.10 1012.81 1012.88 1012.68 1012.42 1012.12 1012.00 1011.70 1011.46 1011.16 1010.74 1010.39 1010.09 1009.44 1008.71
1012.27 1012.48 1012.66 1012.76 1012.81 1012.98 1013.29 1013.50 1013.44 1013.42 1013.21 1013.22 1013.47 1013.58 1013.72 1013.84 1013.65 1013.34 1013.14 1013.09 1013.06 1012.99 1012.71 1012.54 1012.44 1012.16 1011.81 1011.61 1011.33 1010.96 1010.49 1010.08 1009.31
1011.91 1012.04 1012.29 1012.43 1012.50 1012.76 1013.01 1013.02 1013.27 1013.40 1013.50 1013.40 1013.59 1013.63 1013.82 1013.87 1013.73 1013.29 1013.14 1013.20 1013.27 1013.27 1013.09 1012.94 1012.76 1012.52 1012.26 1012.12 1011.89 1011.53 1010.93 1010.69 1010.09
1011.75 1011.83 1011.99 1012.20 1012.38 1012.50 1012.61 1012.94 1013.10 1013.32 1013.36 1013.28 1013.69 1013.64 1013.92 1014.02 1013.86 1013.37 1013.09 1013.21 1013.37 1013.43 1013.33 1013.20 1013.12 1012.95 1012.66 1012.50 1012.32 1012.07 1011.51 1011.20 1010.75
1011.32 1011.50 1011.54 1011.92 1012.11 1012.42 1012.38 1012.66 1013.06 1013.19 1013.27 1013.33 1013.70 1013.47 1013.56 1013.91 1014.09 1013.65 1013.06 1013.21 1013.47 1013.47 1013.50 1013.55 1013.44 1013.37 1013.18 1012.93 1012.68 1012.46 1012.19 1011.81 1011.42
1010.77 1010.96 1011.08 1011.51 1011.98 1012.21 1012.48 1012.65 1012.92 1013.22 1013.21 1013.45 1013.33 1013.49 1013.40 1013.76 1014.05 1013.95 1013.45 1013.36 1013.58 1013.61 1013.73 1013.77 1013.69 1013.60 1013.51 1013.32 1013.10 1012.89 1012.70 1012.39 1012.11
1010.19 1010.30 1010.44 1010.88 1011.34 1011.75 1012.14 1012.60 1012.84 1013.14 1013.34 1013.44 1013.27 1013.30 1013.29 1013.54 1013.93 1014.02 1013.71 1013.72 1013.70 1013.74 1013.80 1013.91 1014.01 1013.91 1013.83 1013.65 1013.45 1013.31 1013.11 1012.92 1012.65
1009.42 1009.70 1010.10 1010.15 1010.86 1011.21 1011.52 1012.12 1012.49 1013.04 1013.16 1013.31 1012.96 1013.12 1013.41 1013.74 1014.02 1013.99 1013.94 1014.10 1013.95 1013.92 1013.99 1014.07 1014.23 1014.19 1014.00 1013.94 1013.84 1013.66 1013.58 1013.35 1013.17
1008.76 1009.45 1009.70 1009.87 1010.70 1011.12 1011.40 1011.89 1012.52 1012.94 1013.17 1013.37 1013.07 1013.22 1013.45 1013.77 1014.11 1014.02 1014.01 1014.49 1014.40 1014.34 1014.26 1014.29 1014.41 1014.34 1014.30 1014.36 1014.22 1014.11 1013.91 1013.83 1013.70
1008.49 1009.33 1009.58 1009.50 1010.11 1010.74 1011.23 1011.66 1012.08 1012.73 1013.15 1013.31 1013.15 1013.30 1013.67 1014.01 1014.15 1014.11 1014.31 1014.63 1014.79 1014.95 1014.58 1014.64 1014.61 1014.58 1014.55 1014.59 1014.45 1014.56 1014.51 1014.34 1014.21
1008.13 1008.86 1009.01 1009.49 1010.02 1010.56 1011.03 1011.30 1012.02 1012.54 1012.99 1013.32 1014.08 1013.92 1014.07 1014.34 1014.43 1014.51 1014.44 1014.77 1015.09 1015.12 1014.92 1015.03 1014.92 1014.82 1014.77 1014.76 1014.72 1014.71 1014.74 1014.83 1014.73
1008.18 1008.58 1009.12 1009.19 1010.00 1010.17 1010.61 1011.27 1011.80 1012.63 1013.08 1013.70 1014.60 1014.84 1015.19 1014.89 1014.85 1014.77 1014.65 1015.00 1015.11 1015.29 1015.34 1015.30 1015.27 1015.25 1015.03 1014.89 1014.91 1014.76 1014.95 1015.07 1015.09
1007.68 1008.20 1008.90 1009.11 1010.20 1010.56 1010.50 1010.73 1011.36 1012.33 1013.05 1013.40 1013.97 1015.01 1015.38 1015.23 1015.29 1015.05 1015.17 1015.34 1015.19 1015.57 1015.53 1015.69 1015.61 1015.66 1015.51 1015.42 1015.19 1015.11 1015.21 1015.38 1015.46
1007.27 1007.84 1008.17 1008.31 1009.44 1010.42 1010.48 1009.91 1010.34 1011.59 1012.64 1012.98 1013.12 1014.40 1015.05 1015.29 1015.62 1015.75 1015.83 1015.88 1015.90 1016.08 1016.11 1016.11 1015.95 1016.03 1015.80 1015.76 1015.52 1015.54 1015.57 1015.59 1015.60
1006.76 1007.17 1007.84 1007.82 1008.12 1009.84 1010.17 1009.70 1010.36 1011.26 1012.59 1012.90 1012.81 1013.19 1013.83 1015.03 1015.96 1016.15 1016.47 1016.49 1016.68 1016.87 1016.73 1016.58 1016.47 1016.40 1016.29 1016.05 1015.87 1016.08 1016.21 1015.98 1015.72
1006.41 1006.83 1007.41 1007.47 1008.46 1009.10 1009.57 1009.75 1010.47 1010.78 1011.65 1012.45 1013.35 1013.60 1014.06 1014.36 1015.26 1016.09 1016.82 1017.21 1017.50 1017.67 1017.62 1017.59 1017.29 1017.06 1016.76 1016.46 1016.35 1016.45 1016.45 1016.33 1016.20
Wind_Speed
8 8 7 8 10 10 8 6 5 4 6 8 7 13 12 9 5 5 7 5 14 15 17 16 17 19 19 19 19 21 22 23 24
8 7 8 6 9 10 9 6 4 2 5 10 16 13 11 4 5 5 5 6 15 16 16 17 17 18 20 20 20 20 22 23 25
11 10 7 7 6 10 9 8 5 1 3 7 10 12 9 6 5 5 5 10 15 16 17 17 18 18 20 20 20 21 21 23 24
11 12 11 9 7 7 9 8 7 4 2 4 9 11 8 4 3 4 3 11 13 15 15 15 19 19 18 20 20 21 22 22 23
11 11 11 10 9 8 7 8 7 6 5 1 7 12 9 3 4 3 3 12 11 13 13 17 17 17 19 20 21 22 22 23 23
5 7 11 12 12 12 10 8 9 8 7 6 7 9 3 2 1 2 9 11 12 13 14 15 16 16 19 19 22 21 23 23 23
7 8 13 14 14 13 12 11 10 7 3 3 3 3 4 2 2 2 10 10 11 12 13 14 14 17 18 19 19 21 22 23 24
4 3 4 5 11 4 7 5 4 4 4 3 2 3 4 2 2 3 11 11 10 11 12 12 12 16 16 18 19 20 22 23 24
5 5 6 5 4 5 4 3 3 4 5 5 1 6 6 3 1 2 11 11 9 10 10 11 13 13 15 16 17 19 20 22 23
5 6 5 5 4 4 4 4 4 4 4 3 5 6 6 5 3 2 9 10 9 10 9 10 12 13 14 15 17 18 19 20 22
7 7 8 6 6 5 5 5 4 3 2 3 0 7 8 7 5 3 5 9 9 9 9 9 10 11 12 14 16 17 18 18 20
9 8 6 6 6 6 5 4 3 4 3 3 1 4 5 5 4 4 3 3 7 7 8 9 9 9 11 13 14 16 16 17 19
7 3 5 5 4 5 5 4 3 3 3 2 2 1 4 5 4 4 4 2 2 2 7 7 9 9 10 11 12 13 15 15 17
5 4 5 6 6 6 6 3 4 3 2 1 2 3 3 4 4 5 5 4 2 1 5 6 5 7 9 10 10 13 13 14 15
6 6 6 7 6 4 5 6 4 3 4 5 4 3 4 3 3 4 3 3 2 2 2 2 1 7 8 10 8 11 11 12 14
3 3 4 5 7 8 8 4 7 3 3 5 2 4 3 4 3 3 3 3 4 3 2 2 1 1 4 5 8 8 10 11 12
6 6 4 6 2 1 6 5 4 3 6 3 3 3 2 4 3 3 3 4 1 1 2 3 2 2 2 1 7 6 7 8 9
6 10 7 7 4 6 9 10 8 6 3 6 6 3 3 3 3 4 4 4 4 4 3 2 3 3 3 3 4 8 6 6 7
8 10 8 11 10 11 8 6 5 6 5 2 3 3 5 4 3 2 5 7 8 7 5 5 5 5 3 4 8 5 2 3 3
8 8 8 8 6 7 9 7 5 4 4 4 2 2 3 4 4 4 3 5 6 5 6 5 5 6 5 3 1 2 5 4 3
Wind_Direction
163 156 152 163 148 135 126 118 101 76 68 61 80 106 85 72 49 23 7 6 38 41 40 38 31 31 26 19 21 21 22 19 19
178 172 172 178 155 143 139 135 121 100 68 70 93 106 96 80 63 35 12 10 48 47 42 38 34 31 31 26 21 22 27 21 20
190 177 192 194 177 158 159 154 156 177 79 88 93 123 109 92 77 43 14 49 52 47 42 38 41 37 31 32 24 25 25 24 22
206 184 188 197 191 173 171 170 175 208 208 110 93 123 118 100 88 62 20 51 47 48 46 41 42 33 36 40 31 28 27 26 25
207 203 196 196 193 191 195 198 190 212 250 190 100 130 119 106 107 77 50 56 50 54 51 48 44 40 40 36 38 33 35 28 29
219 200 209 206 201 195 198 204 211 217 242 251 125 135 126 136 112 110 80 66 65 56 55 53 48 44 41 41 37 33 34 34 32
210 208 212 212 205 203 202 203 221 230 251 272 125 157 152 167 170 131 99 82 76 64 60 57 51 51 47 42 39 37 37 37 34
213 202 209 206 218 197 195 205 210 219 242 251 158 168 147 167 205 149 115 92 89 81 71 65 60 56 54 50 48 44 41 41 41
198 207 201 193 201 199 191 190 203 224 253 270 50 164 159 168 181 199 120 112 103 93 82 73 64 64 59 54 49 42 41 42 43
193 204 193 189 198 195 203 199 194 217 262 301 189 181 160 158 181 203 128 120 113 103 95 85 77 72 62 58 55 54 48 45 45
199 190 189 186 184 182 187 207 190 202 253 221 246 195 165 164 164 193 138 135 124 119 112 97 88 77 72 65 63 59 52 50 48
206 203 195 177 182 175 164 177 167 202 183 194 341 165 154 167 168 144 121 117 123 127 125 116 99 80 76 72 65 63 58 54 54
194 185 174 163 170 185 165 159 188 213 218 196 66 136 151 148 174 170 118 145 99 116 126 131 114 102 84 74 73 68 64 59 56
187 191 220 163 163 172 177 158 146 167 217 249 346 126 128 140 151 126 133 161 142 131 149 135 124 108 103 89 76 74 68 63 62
182 197 176 161 153 155 167 161 166 172 147 99 58 48 63 125 129 130 138 148 174 159 146 102 113 122 121 106 86 84 75 70 63
138 191 184 146 173 175 176 165 169 136 131 115 111 57 61 62 77 120 102 171 187 179 161 162 103 134 69 116 119 99 82 73 69
167 157 144 118 100 319 189 171 129 119 170 135 116 141 21 47 39 62 64 38 50 179 102 78 19 45 50 39 89 89 98 84 79
165 149 142 131 170 224 215 177 157 148 173 212 134 120 171 116 24 42 58 54 45 41 24 63 59 40 51 35 62 60 43 100 91
151 154 172 176 182 211 216 170 159 127 150 67 46 63 139 145 135 93 53 51 42 29 26 35 37 24 26 59 62 59 347 37 40
167 191 199 185 184 169 183 157 155 116 134 118 137 88 73 92 132 146 113 65 32 29 27 21 20 12 359 359 57 80 70 22 21